Location: Caltech
(34.1382°N, 118.1253°W)
Time: 18:09:29
(UTC-08:00)

Courier 1B - Visible Passes

Search period start: 18 January 2017 00:00
Search period end: 28 January 2017 00:00
Orbit: 962 x 1209 km, 28.3° (Epoch: 18 January)

Date Brightness Start Highest point End Pass type
(mag) Time Alt. Az. Time Alt. Az. Time Alt. Az.
18 Jan 8.3 18:08:42 10° W 18:15:57 53° S 18:22:16 12° ESE visible
18 Jan 8.9 20:03:22 10° W 20:09:11 32° SSW 20:09:11 32° SSW visible
19 Jan 8.7 19:09:13 10° W 19:15:57 39° SSW 19:19:07 26° SSE visible
19 Jan 10.1 21:05:08 10° WSW 21:06:02 12° WSW 21:06:02 12° WSW visible
20 Jan 8.6 18:15:07 10° W 18:22:14 45° SSW 18:28:56 10° ESE visible
20 Jan 9.4 20:10:23 10° WSW 20:15:43 22° SSW 20:16:02 22° SSW visible
21 Jan 9.2 19:15:57 10° W 19:22:06 28° SSW 19:26:09 17° SSE visible
22 Jan 9.1 18:21:42 10° W 18:28:25 35° SSW 18:34:49 10° SE visible
22 Jan 9.9 20:18:28 10° WSW 20:21:44 13° SSW 20:23:16 13° SSW visible
23 Jan 9.8 19:23:14 10° WSW 19:28:09 19° SSW 19:32:52 10° SSE visible
24 Jan 9.7 18:28:36 10° WSW 18:34:31 25° SSW 18:40:12 10° SSE visible
25 Jan 9.6 17:34:13 10° W 17:40:49 31° SSW 17:47:10 10° SE visible
25 Jan 10.3 19:32:41 10° SW 19:34:07 11° SSW 19:35:33 10° SSW visible
26 Jan 10.1 18:36:19 10° WSW 18:40:31 16° SSW 18:44:37 10° S visible
27 Jan 10.1 17:41:22 10° WSW 17:46:52 21° SSW 17:52:13 10° SSE visible
